{"data":{"norad_id":57391,"intl_designator":"2023-100F","name":"LEMUR-2-DEVERILL-M-T","alt_names":[],"object_type":"PAYLOAD","status":"ACTIVE","operator":null,"country":"US","launch_date":"2023-07-18","launch_site_code":"RLLB","launch_vehicle":null,"mission":null,"orbit_class":"UNKNOWN","rcs_meters":null,"size_class":null,"mass_kg":null,"dimensions":null,"purposes":["earth_obs"],"wikipedia_slug":null,"has_3d_model":false,"image_url":null,"decayed_at":null,"tle_current":{"epoch":"2026-05-25T00:37:13.953216Z","epoch_age_seconds":66782,"freshness":"FRESH","line1":"1 57391U 23100F   26145.02585594  .00024071  00000+0  63545-3 0  9996","line2":"2 57391  99.4490 177.1219 0008090 117.9987 242.2071 15.38458722157689","mean_motion":15.38458722,"eccentricity":0.000809,"inclination_deg":99.449,"raan_deg":177.1219,"arg_perigee_deg":117.9987,"mean_anomaly_deg":242.2071,"bstar":0.00063545,"rev_number":15768,"period_min":93.600171353834,"perigee_km":445.14188999766,"apogee_km":456.19089388582,"semimajor_km":6828.8033919417,"source":"CELESTRAK","updated_at":"2026-05-25T13:38:13.532786Z"}}}